Volver al catálogo

STARLINK-38045

ActivoComunicacionesVLEO
NORAD 100010·PAYLOAD·🇺🇸 United States

Lanzado Jul 14, 2026 desde Vandenberg Space Force Base

Loading…

Próximos Pases (próximas 24 horas)

TLE

ActualizadoSource: Space-Track

Época: Sep 14, 2026, 06:55 UTC

1 A0010U 26160K   26257.28849553  .00135054  00000-0  79741-3 0  9991
2 A0010  70.0013 212.5067 0003196 259.8516 100.2323 15.77593769 11015

Sigue STARLINK-38045 en tiempo real con AllMySat

Download on the App Store